Weather History for KHNB - May, 2014

Change the Weather History Date:

Friday, May 2, 2014

  Actual Average Record
Temperature  
Mean Temperature 49 °F -  
Max Temperature 57 °F 70 °F 89 °F (2012)
Min Temperature 41 °F 50 °F 37 °F (2005)
Degree Days  
Heating Degree Days 16    
Moisture  
Dew Point 40 °F    
Average Humidity 67    
Maximum Humidity 81    
Minimum Humidity 54    
Precipitation  
Precipitation 0.00 in - - ()
Sea Level Pressure  
Sea Level Pressure 29.94 in    
Wind  
Wind Speed 7 mph (West)    
Max Wind Speed 15 mph    
Max Gust Speed 23 mph    
Visibility 10 miles    
Events      
Averages and records for this station are not official NWS values.
T = Trace of Precipitation, MM = Missing Value Source: NWS Daily Summary

Daily Weather History Graph

Daily Weather History Graph

Search for Another Location

Airport or City:

Trip Planner

Search our weather history database for the weather conditions in past years. The results will help you decide how hot, cold, wet, or windy it might be!

Date:

Astronomy

May. 02, 2014 Rise Set
Actual Time 6:50 AM EDT 8:40 PM EDT
Civil Twilight 6:21 AM EDT 9:08 PM EDT
Nautical Twilight 5:46 AM EDT 9:43 PM EDT
Astronomical Twilight 5:09 AM EDT 10:20 PM EDT
Moon 9:27 AM EDT (5/2) No Moon Set
Length of Visible Light 14h 47m
Length of Day
13h 50m
Waxing Crescent, 12% of the Moon is Illuminated
May 2
Waxing Crescent
May 6
First Quarter
May 14
Full
May 21
Last Quarter
May 28
New

Hourly Weather History & Observations

Time (EDT) Temp. Windchill Dew Point Humidity Pressure Visibility Wind Dir Wind Speed Gust Speed Precip Events Conditions
12:15 AM 50.0 °F - 39.2 °F 66% 29.97 in 10.0 mi WSW 8.1 mph - N/A   Overcast
12:35 AM 48.2 °F - 39.2 °F 71% 29.97 in 10.0 mi WSW 5.8 mph - N/A   Overcast
12:55 AM 50.0 °F - 39.2 °F 66% 29.97 in 10.0 mi WSW 6.9 mph - N/A   Overcast
1:15 AM 50.0 °F - 39.2 °F 66% 29.97 in 10.0 mi West 5.8 mph - N/A   Overcast
1:35 AM 48.2 °F - 37.4 °F 66% 29.97 in 10.0 mi WSW 5.8 mph - N/A   Partly Cloudy
1:55 AM 46.4 °F 43.5 °F 37.4 °F 71% 29.96 in 10.0 mi WSW 5.8 mph - N/A   Scattered Clouds
2:15 AM 48.2 °F - 37.4 °F 66% 29.95 in 10.0 mi WSW 5.8 mph - N/A   Mostly Cloudy
2:35 AM 48.2 °F - 39.2 °F 71% 29.95 in 10.0 mi West 4.6 mph - N/A   Mostly Cloudy
2:55 AM 48.2 °F - 39.2 °F 71% 29.94 in 10.0 mi West 4.6 mph - N/A   Scattered Clouds
3:15 AM 46.4 °F 43.5 °F 37.4 °F 71% 29.93 in 10.0 mi West 5.8 mph - N/A   Clear
3:35 AM 46.4 °F 45.2 °F 37.4 °F 71% 29.93 in 10.0 mi West 3.5 mph - N/A   Clear
3:55 AM 44.6 °F 43.1 °F 37.4 °F 76% 29.93 in 10.0 mi West 3.5 mph - N/A   Clear
4:15 AM 44.6 °F 43.1 °F 37.4 °F 76% 29.93 in 10.0 mi SW 3.5 mph - N/A   Clear
4:35 AM 44.6 °F - 37.4 °F 76% 29.93 in 10.0 mi Calm Calm - N/A   Clear
4:55 AM 42.8 °F 39.3 °F 37.4 °F 81% 29.94 in 10.0 mi SW 5.8 mph - N/A   Clear
5:15 AM 41.0 °F 38.0 °F 35.6 °F 81% 29.94 in 10.0 mi WSW 4.6 mph - N/A   Clear
5:35 AM 42.8 °F - 35.6 °F 76% 29.94 in 10.0 mi Calm Calm - N/A   Clear
5:55 AM 42.8 °F 40.1 °F 37.4 °F 81% 29.93 in 10.0 mi WSW 4.6 mph - N/A   Clear
6:15 AM 42.8 °F - 37.4 °F 81% 29.94 in 10.0 mi Calm Calm - N/A   Clear
6:35 AM 42.8 °F - 37.4 °F 81% 29.93 in 10.0 mi Calm Calm - N/A   Clear
6:55 AM 41.0 °F 39.0 °F 35.6 °F 81% 29.94 in 10.0 mi SW 3.5 mph - N/A   Clear
7:15 AM 42.8 °F 41.1 °F 37.4 °F 81% 29.94 in 10.0 mi West 3.5 mph - N/A   Clear
7:35 AM 42.8 °F 41.1 °F 37.4 °F 81% 29.95 in 10.0 mi SW 3.5 mph - N/A   Clear
7:55 AM 44.6 °F 42.2 °F 39.2 °F 81% 29.95 in 10.0 mi WSW 4.6 mph - N/A   Clear
8:15 AM 46.4 °F 44.3 °F 39.2 °F 76% 29.95 in 10.0 mi West 4.6 mph - N/A   Clear
8:35 AM 48.2 °F - 41.0 °F 76% 29.95 in 10.0 mi West 5.8 mph - N/A   Clear
8:55 AM 48.2 °F - 41.0 °F 76% 29.96 in 10.0 mi West 6.9 mph - N/A   Clear
9:15 AM 50.0 °F - 42.8 °F 76% 29.96 in 10.0 mi WNW 5.8 mph - N/A   Clear
9:35 AM 51.8 °F - 42.8 °F 71% 29.96 in 10.0 mi WNW 4.6 mph - N/A   Clear
9:55 AM 53.6 °F - 42.8 °F 67% 29.95 in 10.0 mi NW 8.1 mph - N/A   Partly Cloudy
10:15 AM 53.6 °F - 42.8 °F 67% 29.96 in 10.0 mi NW 9.2 mph - N/A   Partly Cloudy
10:35 AM 53.6 °F - 41.0 °F 62% 29.96 in 10.0 mi WNW 9.2 mph - N/A   Mostly Cloudy
10:55 AM 55.4 °F - 42.8 °F 63% 29.96 in 10.0 mi WNW 10.4 mph - N/A   Mostly Cloudy
11:15 AM 55.4 °F - 42.8 °F 63% 29.96 in 10.0 mi West 10.4 mph - N/A   Mostly Cloudy
11:35 AM 55.4 °F - 42.8 °F 63% 29.97 in 10.0 mi West 11.5 mph - N/A   Mostly Cloudy
11:55 AM 55.4 °F - 42.8 °F 63% 29.96 in 10.0 mi NW 8.1 mph 16.1 mph N/A   Mostly Cloudy
12:15 PM 55.4 °F - 41.0 °F 58% 29.96 in 10.0 mi West 9.2 mph 17.3 mph N/A   Overcast
12:35 PM 55.4 °F - 42.8 °F 63% 29.96 in 10.0 mi NW 10.4 mph 16.1 mph N/A   Overcast
12:55 PM 55.4 °F - 41.0 °F 58% 29.96 in 10.0 mi WNW 11.5 mph - N/A   Overcast
1:15 PM 55.4 °F - 42.8 °F 63% 29.96 in 10.0 mi West 9.2 mph - N/A   Overcast
1:35 PM 55.4 °F - 41.0 °F 58% 29.95 in 10.0 mi WSW 10.4 mph 23.0 mph N/A   Overcast
1:55 PM 55.4 °F - 41.0 °F 58% 29.95 in 10.0 mi WNW 15.0 mph - N/A   Overcast
2:15 PM 55.4 °F - 41.0 °F 58% 29.95 in 10.0 mi West 12.7 mph 16.1 mph N/A   Overcast
2:35 PM 55.4 °F - 42.8 °F 63% 29.95 in 10.0 mi WNW 13.8 mph - N/A   Overcast
2:55 PM 55.4 °F - 41.0 °F 58% 29.95 in 10.0 mi West 15.0 mph - N/A   Overcast
3:15 PM 53.6 °F - 41.0 °F 62% 29.94 in 10.0 mi WNW 13.8 mph 19.6 mph N/A   Overcast
3:35 PM 55.4 °F - 42.8 °F 63% 29.93 in 10.0 mi West 12.7 mph 18.4 mph N/A   Overcast
3:55 PM 57.2 °F - 42.8 °F 59% 29.93 in 10.0 mi WNW 12.7 mph - N/A   Overcast
4:15 PM 57.2 °F - 42.8 °F 59% 29.93 in 10.0 mi WNW 10.4 mph 19.6 mph N/A   Overcast
4:35 PM 55.4 °F - 41.0 °F 58% 29.92 in 10.0 mi NW 11.5 mph - N/A   Overcast
4:55 PM 55.4 °F - 41.0 °F 58% 29.92 in 10.0 mi West 13.8 mph 17.3 mph N/A   Overcast
5:15 PM 55.4 °F - 39.2 °F 54% 29.92 in 10.0 mi West 12.7 mph 20.7 mph N/A   Overcast
5:35 PM 55.4 °F - 39.2 °F 54% 29.92 in 10.0 mi WNW 13.8 mph - N/A   Overcast
5:55 PM 55.4 °F - 39.2 °F 54% 29.93 in 10.0 mi West 12.7 mph - N/A   Overcast
6:15 PM 55.4 °F - 39.2 °F 54% 29.93 in 10.0 mi WNW 10.4 mph - N/A   Overcast
6:35 PM 55.4 °F - 39.2 °F 54% 29.93 in 10.0 mi West 10.4 mph - N/A   Overcast
6:55 PM 55.4 °F - 39.2 °F 54% 29.93 in 10.0 mi West 10.4 mph - N/A   Overcast
7:15 PM 55.4 °F - 39.2 °F 54% 29.93 in 10.0 mi WNW 10.4 mph 17.3 mph N/A   Overcast
7:35 PM 53.6 °F - 39.2 °F 58% 29.94 in 10.0 mi WNW 8.1 mph - N/A   Overcast
7:55 PM 53.6 °F - 41.0 °F 62% 29.94 in 10.0 mi NW 4.6 mph - N/A   Overcast
8:15 PM 53.6 °F - 39.2 °F 58% 29.93 in 10.0 mi NW 4.6 mph - N/A   Overcast
8:35 PM 53.6 °F - 41.0 °F 62% 29.93 in 10.0 mi WNW 4.6 mph - N/A   Overcast
8:55 PM 51.8 °F - 41.0 °F 67% 29.92 in 10.0 mi SW 3.5 mph - N/A   Mostly Cloudy
9:15 PM 53.6 °F - 39.2 °F 58% 29.92 in 10.0 mi Calm Calm - N/A   Partly Cloudy
9:35 PM 51.8 °F - 39.2 °F 62% 29.92 in 10.0 mi Calm Calm - N/A   Clear
9:55 PM 50.0 °F - 39.2 °F 66% 29.93 in 10.0 mi Calm Calm - N/A   Clear
10:15 PM 48.2 °F - 39.2 °F 71% 29.92 in 10.0 mi Calm Calm - N/A   Clear
10:35 PM 48.2 °F - 39.2 °F 71% 29.92 in 10.0 mi SE 4.6 mph - N/A   Clear
10:55 PM 46.4 °F 45.2 °F 39.2 °F 76% 29.93 in 10.0 mi SSE 3.5 mph - N/A   Clear
11:15 PM 46.4 °F 45.2 °F 39.2 °F 76% 29.93 in 10.0 mi SSE 3.5 mph - N/A   Clear
11:35 PM 44.6 °F 43.1 °F 39.2 °F 81% 29.93 in 10.0 mi SSE 3.5 mph - N/A   Clear
11:55 PM 44.6 °F - 37.4 °F 76% 29.93 in 10.0 mi Calm Calm - N/A   Clear